QPF
0.00 0.00 0.00 0.01 0.01 0.01 0.02 0.03 0.05 0.03 0.02 0.02 0.02 0.03 0.02 0.01 0.00 0.00 0.00 0.00 0.00 0.00 0.00 0.00 0.00 0.00 0.00 0.00 0.00 0.00 0.00 0.00 0.00 0.00 0.00 0.00 0.00 0.00 0.00 0.00 0.00 0.00 0.00 0.00
0.00 0.00 0.00 0.00 0.00 0.00 0.00 0.00 0.00 0.00 0.00 0.00 0.00 0.00 0.00 0.00 0.00 0.00 0.00 0.00 0.00 0.00 0.00 0.00 0.00 0.00 0.00 0.00 0.00 0.00 0.00 0.00 0.00 0.00 0.00 0.00 0.00 0.00 0.00 0.00 0.00 0.00 0.00 0.00
0.00 0.00 0.00 0.00 0.00 0.00 0.00 0.00 0.00 0.00 0.00 0.00 0.00 0.00 0.00 0.00 0.00 0.00 0.00 0.00 0.00 0.00 0.00 0.00 0.00 0.00 0.00 0.00 0.00 0.00 0.00 0.00 0.00 0.00 0.00 0.00 0.00 0.00 0.00 0.00 0.00 0.00 0.00 0.00
0.01 0.00 0.00 0.00 0.00 0.00 0.00 0.00 0.00 0.00 0.00 0.00 0.00 0.00 0.00 0.00 0.00 0.00 0.00 0.00 0.00 0.00 0.00 0.00 0.00 0.00 0.00 0.00 0.00 0.00 0.00 0.00 0.00 0.00 0.00 0.00 0.00 0.00 0.00 0.00 0.00 0.00 0.00 0.00
0.02 0.01 0.00 0.00 0.00 0.00 0.00 0.00 0.00 0.00 0.00 0.00 0.00 0.00 0.00 0.00 0.00 0.00 0.00 0.00 0.00 0.00 0.00 0.00 0.00 0.00 0.00 0.00 0.00 0.00 0.00 0.00 0.00 0.00 0.00 0.00 0.00 0.00 0.00 0.00 0.00 0.00 0.00 0.00
0.02 0.01 0.00 0.00 0.00 0.00 0.00 0.00 0.00 0.00 0.00 0.00 0.00 0.00 0.00 0.00 0.00 0.00 0.00 0.00 0.00 0.00 0.00 0.00 0.00 0.00 0.00 0.00 0.00 0.00 0.00 0.00 0.00 0.00 0.00 0.00 0.00 0.00 0.00 0.00 0.00 0.00 0.00 0.00
0.01 0.01 0.01 0.00 0.00 0.00 0.00 0.00 0.00 0.00 0.00 0.00 0.00 0.00 0.00 0.00 0.00 0.00 0.00 0.00 0.00 0.00 0.00 0.00 0.00 0.00 0.00 0.00 0.00 0.00 0.00 0.00 0.00 0.00 0.00 0.00 0.00 0.00 0.00 0.00 0.00 0.00 0.00 0.00
0.00 0.01 0.00 0.00 0.00 0.00 0.00 0.00 0.00 0.00 0.00 0.00 0.00 0.00 0.00 0.00 0.00 0.00 0.00 0.00 0.00 0.00 0.00 0.00 0.00 0.00 0.00 0.00 0.00 0.00 0.00 0.00 0.00 0.00 0.00 0.00 0.00 0.00 0.00 0.00 0.00 0.00 0.00 0.00
0.00 0.00 0.00 0.00 0.00 0.00 0.00 0.00 0.00 0.00 0.00 0.00 0.00 0.00 0.00 0.00 0.00 0.00 0.00 0.00 0.00 0.00 0.00 0.00 0.00 0.00 0.00 0.00 0.00 0.00 0.00 0.00 0.00 0.00 0.00 0.00 0.00 0.00 0.00 0.00 0.00 0.00 0.00 0.00
0.00 0.00 0.00 0.00 0.00 0.00 0.00 0.00 0.00 0.00 0.00 0.00 0.00 0.00 0.00 0.00 0.00 0.00 0.00 0.00 0.00 0.00 0.00 0.00 0.00 0.00 0.00 0.00 0.00 0.00 0.00 0.00 0.00 0.00 0.00 0.00 0.00 0.00 0.00 0.00 0.01 0.01 0.00 0.00
0.00 0.00 0.00 0.00 0.00 0.00 0.00 0.00 0.00 0.00 0.00 0.00 0.00 0.00 0.00 0.00 0.00 0.00 0.00 0.00 0.00 0.00 0.00 0.00 0.00 0.00 0.00 0.00 0.00 0.00 0.00 0.00 0.00 0.00 0.00 0.00 0.00 0.00 0.00 0.00 0.01 0.02 0.02 0.02
0.00 0.00 0.00 0.00 0.00 0.00 0.00 0.00 0.00 0.00 0.00 0.00 0.00 0.00 0.00 0.00 0.00 0.00 0.00 0.00 0.00 0.00 0.00 0.00 0.00 0.00 0.00 0.00 0.00 0.00 0.00 0.00 0.00 0.00 0.00 0.00 0.00 0.00 0.00 0.01 0.01 0.02 0.04 0.05
0.00 0.00 0.00 0.00 0.00 0.00 0.00 0.00 0.00 0.00 0.00 0.00 0.00 0.00 0.00 0.00 0.00 0.00 0.00 0.00 0.00 0.00 0.00 0.00 0.00 0.00 0.00 0.00 0.00 0.00 0.00 0.00 0.00 0.00 0.00 0.00 0.00 0.00 0.01 0.00 0.00 0.01 0.01 0.02
0.00 0.00 0.00 0.00 0.00 0.00 0.00 0.00 0.00 0.00 0.00 0.00 0.00 0.00 0.00 0.00 0.00 0.00 0.00 0.00 0.00 0.00 0.00 0.00 0.00 0.00 0.00 0.00 0.00 0.00 0.00 0.00 0.00 0.01 0.01 0.01 0.01 0.01 0.01 0.01 0.01 0.00 0.00 0.01
0.00 0.00 0.00 0.00 0.00 0.00 0.00 0.00 0.00 0.00 0.00 0.00 0.00 0.00 0.00 0.00 0.00 0.00 0.00 0.00 0.00 0.00 0.00 0.00 0.00 0.00 0.00 0.00 0.00 0.00 0.00 0.00 0.01 0.01 0.01 0.01 0.01 0.01 0.01 0.01 0.01 0.01 0.01 0.00
0.00 0.00 0.00 0.00 0.00 0.00 0.00 0.00 0.00 0.00 0.00 0.00 0.00 0.00 0.00 0.00 0.00 0.00 0.00 0.00 0.00 0.00 0.00 0.00 0.00 0.00 0.00 0.00 0.00 0.01 0.00 0.00 0.00 0.01 0.01 0.01 0.01 0.01 0.02 0.02 0.02 0.02 0.01 0.01
0.00 0.00 0.00 0.00 0.00 0.00 0.00 0.00 0.00 0.00 0.00 0.00 0.00 0.00 0.00 0.00 0.00 0.00 0.00 0.00 0.00 0.00 0.00 0.00 0.00 0.00 0.00 0.00 0.00 0.01 0.01 0.00 0.00 0.01 0.01 0.01 0.02 0.02 0.02 0.03 0.03 0.02 0.02 0.02
0.00 0.00 0.00 0.00 0.00 0.00 0.00 0.00 0.00 0.00 0.00 0.00 0.00 0.00 0.00 0.00 0.00 0.00 0.00 0.00 0.00 0.00 0.00 0.00 0.00 0.00 0.00 0.00 0.00 0.01 0.01 0.01 0.01 0.01 0.01 0.01 0.02 0.02 0.03 0.03 0.03 0.03 0.02 0.02
0.00 0.00 0.00 0.00 0.00 0.00 0.00 0.00 0.00 0.00 0.00 0.00 0.00 0.00 0.00 0.00 0.00 0.00 0.00 0.00 0.00 0.00 0.00 0.00 0.00 0.00 0.00 0.00 0.00 0.00 0.00 0.00 0.01 0.01 0.01 0.01 0.01 0.01 0.02 0.02 0.02 0.03 0.03 0.03
0.00 0.00 0.00 0.00 0.00 0.00 0.00 0.00 0.00 0.00 0.00 0.00 0.00 0.00 0.00 0.00 0.00 0.00 0.00 0.00 0.00 0.00 0.00 0.00 0.00 0.00 0.00 0.00 0.00 0.00 0.00 0.00 0.00 0.00 0.01 0.01 0.01 0.01 0.01 0.02 0.02 0.02 0.02 0.03
0.00 0.00 0.00 0.00 0.00 0.00 0.00 0.00 0.00 0.00 0.00 0.00 0.00 0.00 0.00 0.00 0.00 0.00 0.00 0.00 0.00 0.00 0.00 0.00 0.00 0.00 0.00 0.00 0.00 0.00 0.00 0.00 0.00 0.00 0.00 0.00 0.01 0.01 0.01 0.02 0.02 0.02 0.03 0.03
0.00 0.00 0.00 0.00 0.00 0.00 0.00 0.00 0.00 0.00 0.00 0.00 0.00 0.00 0.00 0.00 0.00 0.00 0.00 0.00 0.00 0.00 0.00 0.00 0.00 0.00 0.00 0.00 0.00 0.00 0.00 0.00 0.00 0.00 0.00 0.00 0.00 0.00 0.01 0.01 0.02 0.02 0.03 0.03
0.00 0.00 0.00 0.00 0.00 0.00 0.00 0.00 0.00 0.00 0.00 0.00 0.00 0.00 0.00 0.00 0.00 0.00 0.00 0.00 0.00 0.00 0.00 0.00 0.00 0.00 0.00 0.00 0.00 0.00 0.00 0.00 0.00 0.00 0.00 0.00 0.00 0.00 0.00 0.01 0.01 0.01 0.02 0.02
0.00 0.00 0.00 0.00 0.00 0.00 0.00 0.00 0.00 0.00 0.00 0.00 0.00 0.00 0.01 0.01 0.01 0.01 0.01 0.01 0.01 0.01 0.00 0.00 0.00 0.00 0.00 0.00 0.00 0.00 0.00 0.00 0.00 0.00 0.00 0.00 0.00 0.00 0.00 0.00 0.00 0.01 0.01 0.01
0.00 0.00 0.00 0.00 0.00 0.00 0.00 0.00 0.00 0.00 0.00 0.00 0.01 0.01 0.01 0.02 0.02 0.02 0.02 0.01 0.01 0.01 0.00 0.00 0.00 0.00 0.00 0.00 0.00 0.00 0.00 0.00 0.00 0.00 0.00 0.00 0.00 0.00 0.00 0.00 0.00 0.00 0.00 0.00
0.00 0.00 0.00 0.00 0.00 0.00 0.00 0.00 0.00 0.00 0.01 0.01 0.01 0.02 0.02 0.02 0.02 0.02 0.02 0.02 0.01 0.01 0.00 0.00 0.00 0.00 0.00 0.00 0.00 0.00 0.00 0.00 0.00 0.00 0.00 0.00 0.00 0.00 0.00 0.00 0.00 0.00 0.00 0.00
0.00 0.00 0.00 0.00 0.00 0.00 0.00 0.01 0.01 0.01 0.02 0.02 0.02 0.03 0.03 0.03 0.03 0.03 0.02 0.02 0.01 0.01 0.00 0.00 0.00 0.00 0.00 0.00 0.00 0.00 0.00 0.00 0.00 0.00 0.00 0.00 0.00 0.00 0.00 0.00 0.00 0.00 0.00 0.00
MSLP
1019.25 1019.21 1019.03 1018.72 1018.32 1017.88 1017.46 1017.12 1016.89 1016.80 1016.87 1017.08 1017.41 1017.83 1018.28 1018.72 1019.12 1019.46 1019.73 1019.93 1020.09 1020.24 1020.37 1020.53 1020.71 1020.91 1021.12 1021.31 1021.47 1021.58 1021.62 1021.58 1021.47 1021.29 1021.06 1020.79 1020.48 1020.14 1019.77 1019.36 1018.92 1018.43 1017.92 1017.38
1020.25 1020.10 1019.79 1019.35 1018.82 1018.28 1017.78 1017.38 1017.13 1017.05 1017.14 1017.38 1017.73 1018.14 1018.57 1018.96 1019.29 1019.54 1019.72 1019.84 1019.93 1020.01 1020.11 1020.24 1020.41 1020.60 1020.81 1020.99 1021.13 1021.21 1021.22 1021.16 1021.04 1020.86 1020.65 1020.41 1020.14 1019.85 1019.52 1019.15 1018.72 1018.23 1017.68 1017.08
1021.25 1021.01 1020.60 1020.06 1019.45 1018.83 1018.28 1017.85 1017.57 1017.48 1017.57 1017.79 1018.12 1018.50 1018.87 1019.19 1019.43 1019.60 1019.69 1019.74 1019.77 1019.81 1019.88 1020.00 1020.17 1020.36 1020.56 1020.73 1020.85 1020.91 1020.89 1020.81 1020.66 1020.48 1020.26 1020.02 1019.77 1019.50 1019.19 1018.83 1018.40 1017.89 1017.29 1016.64
1022.09 1021.78 1021.31 1020.73 1020.08 1019.43 1018.85 1018.41 1018.12 1018.01 1018.06 1018.25 1018.53 1018.84 1019.13 1019.37 1019.53 1019.62 1019.65 1019.64 1019.63 1019.65 1019.73 1019.86 1020.04 1020.25 1020.45 1020.63 1020.75 1020.79 1020.75 1020.64 1020.46 1020.25 1020.01 1019.75 1019.48 1019.19 1018.85 1018.47 1018.00 1017.45 1016.81 1016.08
1022.62 1022.27 1021.78 1021.18 1020.54 1019.90 1019.34 1018.91 1018.62 1018.49 1018.52 1018.65 1018.87 1019.10 1019.31 1019.46 1019.55 1019.58 1019.57 1019.54 1019.54 1019.58 1019.69 1019.85 1020.08 1020.32 1020.56 1020.75 1020.87 1020.91 1020.85 1020.71 1020.50 1020.24 1019.95 1019.64 1019.31 1018.96 1018.57 1018.12 1017.60 1016.98 1016.27 1015.48
1022.72 1022.35 1021.86 1021.29 1020.69 1020.10 1019.59 1019.19 1018.92 1018.79 1018.79 1018.89 1019.03 1019.20 1019.34 1019.44 1019.49 1019.49 1019.48 1019.47 1019.51 1019.61 1019.77 1020.01 1020.29 1020.59 1020.87 1021.09 1021.22 1021.26 1021.18 1021.01 1020.75 1020.43 1020.07 1019.68 1019.27 1018.83 1018.34 1017.81 1017.19 1016.49 1015.71 1014.85
1022.32 1021.93 1021.47 1020.95 1020.42 1019.92 1019.48 1019.14 1018.91 1018.80 1018.79 1018.86 1018.98 1019.10 1019.21 1019.29 1019.33 1019.36 1019.39 1019.45 1019.56 1019.75 1020.00 1020.32 1020.68 1021.03 1021.35 1021.60 1021.74 1021.76 1021.66 1021.44 1021.13 1020.74 1020.29 1019.80 1019.28 1018.72 1018.12 1017.47 1016.76 1015.97 1015.11 1014.18
1021.40 1021.03 1020.60 1020.15 1019.71 1019.30 1018.96 1018.70 1018.54 1018.47 1018.49 1018.57 1018.69 1018.82 1018.94 1019.05 1019.14 1019.24 1019.35 1019.51 1019.73 1020.01 1020.37 1020.76 1021.18 1021.58 1021.93 1022.17 1022.30 1022.30 1022.16 1021.88 1021.50 1021.02 1020.47 1019.87 1019.23 1018.55 1017.83 1017.06 1016.24 1015.36 1014.43 1013.45
1020.05 1019.69 1019.32 1018.95 1018.60 1018.30 1018.07 1017.91 1017.84 1017.85 1017.93 1018.06 1018.23 1018.41 1018.60 1018.79 1018.98 1019.18 1019.41 1019.69 1020.02 1020.41 1020.84 1021.29 1021.74 1022.15 1022.49 1022.71 1022.79 1022.73 1022.53 1022.18 1021.71 1021.14 1020.49 1019.78 1019.02 1018.22 1017.38 1016.49 1015.57 1014.61 1013.61 1012.58
1018.39 1018.06 1017.75 1017.47 1017.23 1017.05 1016.94 1016.90 1016.94 1017.06 1017.23 1017.46 1017.72 1018.00 1018.30 1018.61 1018.92 1019.26 1019.62 1020.02 1020.45 1020.91 1021.39 1021.86 1022.30 1022.67 1022.94 1023.09 1023.09 1022.94 1022.65 1022.22 1021.66 1021.00 1020.25 1019.44 1018.57 1017.66 1016.71 1015.73 1014.71 1013.67 1012.61 1011.55
1016.60 1016.32 1016.09 1015.91 1015.79 1015.74 1015.76 1015.86 1016.03 1016.27 1016.57 1016.92 1017.31 1017.72 1018.16 1018.61 1019.07 1019.54 1020.02 1020.52 1021.01 1021.51 1021.98 1022.41 1022.78 1023.05 1023.21 1023.24 1023.13 1022.87 1022.47 1021.94 1021.29 1020.55 1019.72 1018.82 1017.87 1016.87 1015.83 1014.76 1013.67 1012.57 1011.45 1010.35
1014.88 1014.68 1014.55 1014.49 1014.50 1014.59 1014.75 1014.99 1015.31 1015.69 1016.13 1016.62 1017.15 1017.71 1018.29 1018.88 1019.47 1020.05 1020.62 1021.17 1021.68 1022.15 1022.56 1022.89 1023.13 1023.26 1023.27 1023.15 1022.89 1022.51 1022.00 1021.37 1020.65 1019.84 1018.95 1017.99 1016.98 1015.91 1014.81 1013.68 1012.52 1011.35 1010.19 1009.05
1013.42 1013.34 1013.33 1013.40 1013.56 1013.79 1014.10 1014.49 1014.95 1015.47 1016.05 1016.69 1017.36 1018.05 1018.75 1019.45 1020.13 1020.78 1021.38 1021.92 1022.39 1022.77 1023.06 1023.25 1023.32 1023.28 1023.12 1022.83 1022.43 1021.93 1021.32 1020.63 1019.85 1019.00 1018.07 1017.08 1016.03 1014.93 1013.78 1012.59 1011.38 1010.16 1008.95 1007.76
1012.39 1012.44 1012.58 1012.80 1013.11 1013.49 1013.94 1014.47 1015.06 1015.72 1016.42 1017.17 1017.95 1018.73 1019.52 1020.28 1020.99 1021.64 1022.21 1022.68 1023.05 1023.30 1023.43 1023.45 1023.34 1023.11 1022.78 1022.35 1021.83 1021.23 1020.57 1019.83 1019.03 1018.16 1017.24 1016.24 1015.18 1014.05 1012.87 1011.65 1010.39 1009.12 1007.85 1006.61
1011.90 1012.11 1012.41 1012.78 1013.23 1013.75 1014.33 1014.97 1015.68 1016.43 1017.22 1018.04 1018.87 1019.70 1020.50 1021.25 1021.93 1022.52 1023.00 1023.35 1023.57 1023.66 1023.62 1023.45 1023.17 1022.78 1022.32 1021.78 1021.18 1020.53 1019.84 1019.10 1018.32 1017.48 1016.57 1015.59 1014.54 1013.41 1012.21 1010.96 1009.66 1008.35 1007.04 1005.75
1012.00 1012.38 1012.83 1013.35 1013.93 1014.56 1015.23 1015.96 1016.72 1017.52 1018.35 1019.18 1020.01 1020.81 1021.56 1022.24 1022.82 1023.29 1023.62 1023.82 1023.87 1023.78 1023.56 1023.24 1022.81 1022.32 1021.77 1021.17 1020.55 1019.91 1019.24 1018.54 1017.81 1017.01 1016.16 1015.21 1014.19 1013.07 1011.87 1010.61 1009.29 1007.95 1006.60 1005.27
1012.69 1013.23 1013.82 1014.45 1015.11 1015.81 1016.54 1017.29 1018.06 1018.85 1019.65 1020.43 1021.19 1021.90 1022.53 1023.07 1023.50 1023.80 1023.96 1023.98 1023.86 1023.61 1023.25 1022.80 1022.29 1021.74 1021.16 1020.58 1019.99 1019.40 1018.80 1018.18 1017.52 1016.80 1016.01 1015.11 1014.12 1013.03 1011.85 1010.59 1009.27 1007.92 1006.57 1005.24
1013.89 1014.56 1015.25 1015.94 1016.65 1017.36 1018.07 1018.79 1019.51 1020.23 1020.93 1021.60 1022.23 1022.78 1023.26 1023.62 1023.86 1023.97 1023.95 1023.80 1023.52 1023.14 1022.68 1022.17 1021.63 1021.09 1020.54 1020.02 1019.52 1019.02 1018.53 1018.00 1017.44 1016.80 1016.07 1015.24 1014.29 1013.24 1012.09 1010.85 1009.56 1008.25 1006.93 1005.63
1015.49 1016.23 1016.96 1017.66 1018.35 1019.01 1019.65 1020.27 1020.88 1021.46 1022.01 1022.52 1022.97 1023.34 1023.61 1023.78 1023.83 1023.76 1023.57 1023.27 1022.88 1022.42 1021.92 1021.40 1020.89 1020.40 1019.94 1019.53 1019.14 1018.76 1018.38 1017.96 1017.49 1016.93 1016.27 1015.49 1014.60 1013.59 1012.49 1011.31 1010.08 1008.83 1007.58 1006.36
1017.27 1018.04 1018.75 1019.40 1020.00 1020.55 1021.06 1021.54 1021.98 1022.39 1022.76 1023.07 1023.32 1023.49 1023.57 1023.55 1023.43 1023.20 1022.89 1022.49 1022.03 1021.55 1021.05 1020.58 1020.14 1019.74 1019.40 1019.10 1018.84 1018.58 1018.30 1017.98 1017.59 1017.10 1016.49 1015.77 1014.93 1013.98 1012.94 1011.85 1010.71 1009.56 1008.43 1007.33
1019.05 1019.78 1020.42 1020.96 1021.43 1021.83 1022.17 1022.46 1022.72 1022.93 1023.10 1023.22 1023.28 1023.27 1023.18 1023.00 1022.74 1022.41 1022.01 1021.57 1021.10 1020.64 1020.20 1019.80 1019.46 1019.17 1018.95 1018.77 1018.61 1018.45 1018.26 1018.01 1017.68 1017.24 1016.68 1016.00 1015.21 1014.33 1013.38 1012.38 1011.36 1010.34 1009.35 1008.39
1020.64 1021.28 1021.80 1022.20 1022.50 1022.72 1022.88 1022.99 1023.05 1023.08 1023.06 1023.01 1022.90 1022.74 1022.52 1022.24 1021.90 1021.51 1021.09 1020.65 1020.22 1019.82 1019.45 1019.15 1018.92 1018.74 1018.62 1018.53 1018.46 1018.37 1018.23 1018.02 1017.72 1017.31 1016.79 1016.15 1015.42 1014.61 1013.75 1012.86 1011.97 1011.09 1010.25 1009.44
1021.89 1022.40 1022.77 1023.01 1023.15 1023.20 1023.18 1023.11 1023.01 1022.88 1022.71 1022.52 1022.30 1022.04 1021.74 1021.41 1021.04 1020.65 1020.25 1019.86 1019.50 1019.17 1018.91 1018.70 1018.56 1018.47 1018.42 1018.40 1018.37 1018.31 1018.20 1018.01 1017.72 1017.33 1016.83 1016.23 1015.56 1014.82 1014.06 1013.28 1012.51 1011.77 1011.06 1010.39
1022.70 1023.07 1023.29 1023.39 1023.37 1023.27 1023.11 1022.91 1022.68 1022.43 1022.17 1021.89 1021.60 1021.29 1020.97 1020.63 1020.28 1019.93 1019.59 1019.28 1019.00 1018.76 1018.58 1018.46 1018.38 1018.35 1018.35 1018.35 1018.33 1018.28 1018.16 1017.96 1017.67 1017.28 1016.81 1016.25 1015.64 1014.98 1014.31 1013.64 1012.98 1012.35 1011.76 1011.19
1023.04 1023.28 1023.38 1023.35 1023.22 1023.02 1022.77 1022.48 1022.17 1021.86 1021.55 1021.23 1020.92 1020.61 1020.31 1020.01 1019.71 1019.43 1019.16 1018.93 1018.73 1018.57 1018.46 1018.39 1018.36 1018.35 1018.36 1018.35 1018.32 1018.24 1018.09 1017.88 1017.58 1017.21 1016.76 1016.25 1015.70 1015.12 1014.53 1013.94 1013.37 1012.83 1012.30 1011.80
1022.97 1023.10 1023.10 1023.00 1022.81 1022.56 1022.27 1021.95 1021.62 1021.29 1020.97 1020.66 1020.37 1020.09 1019.83 1019.58 1019.35 1019.14 1018.95 1018.79 1018.65 1018.55 1018.48 1018.44 1018.41 1018.40 1018.38 1018.34 1018.27 1018.16 1017.99 1017.76 1017.46 1017.10 1016.69 1016.23 1015.73 1015.22 1014.71 1014.19 1013.68 1013.18 1012.69 1012.20
1022.58 1022.64 1022.60 1022.48 1022.28 1022.02 1021.73 1021.43 1021.12 1020.81 1020.52 1020.24 1019.99 1019.75 1019.54 1019.35 1019.18 1019.02 1018.89 1018.78 1018.69 1018.61 1018.55 1018.50 1018.46 1018.41 1018.35 1018.27 1018.15 1018.00 1017.81 1017.56 1017.27 1016.94 1016.57 1016.16 1015.73 1015.28 1014.82 1014.35 1013.88 1013.39 1012.89 1012.37
Thickness
5465 5474 5470 5462 5463 5468 5459 5455 5446 5453 5460 5469 5460 5445 5439 5430 5422 5415 5409 5404 5398 5390 5384 5378 5374 5369 5365 5361 5357 5354 5351 5348 5346 5346 5347 5348 5349 5351 5353 5356 5359 5364 5368 5373
5422 5436 5431 5429 5445 5448 5443 5444 5443 5442 5443 5433 5418 5414 5408 5402 5397 5390 5384 5378 5373 5366 5359 5353 5349 5345 5341 5337 5333 5328 5324 5321 5320 5319 5320 5321 5323 5325 5327 5330 5332 5336 5341 5345
5386 5414 5402 5395 5428 5430 5428 5435 5431 5422 5407 5390 5390 5386 5379 5373 5368 5364 5359 5354 5347 5341 5335 5328 5322 5318 5314 5312 5308 5303 5299 5297 5295 5293 5294 5295 5296 5298 5299 5301 5304 5308 5313 5317
5360 5363 5342 5406 5433 5427 5416 5415 5407 5387 5370 5367 5364 5360 5355 5348 5342 5341 5338 5332 5326 5320 5315 5309 5303 5297 5293 5288 5282 5277 5274 5272 5271 5270 5270 5270 5269 5270 5271 5270 5273 5278 5284 5289
5342 5334 5348 5391 5412 5400 5386 5380 5380 5365 5351 5348 5343 5337 5334 5333 5328 5324 5320 5315 5309 5304 5298 5292 5284 5278 5272 5267 5261 5257 5254 5252 5250 5246 5244 5244 5243 5244 5244 5242 5245 5248 5252 5258
5333 5324 5320 5369 5369 5367 5356 5337 5347 5338 5329 5326 5321 5307 5312 5319 5313 5309 5305 5300 5295 5290 5282 5272 5264 5259 5253 5248 5242 5238 5234 5231 5226 5221 5216 5214 5214 5214 5214 5212 5216 5220 5226 5232
5321 5308 5315 5353 5344 5340 5314 5315 5321 5318 5313 5309 5303 5299 5303 5305 5302 5298 5293 5287 5280 5273 5263 5253 5246 5239 5233 5228 5222 5217 5211 5206 5200 5194 5187 5184 5183 5183 5181 5182 5185 5190 5195 5204
5305 5292 5301 5331 5320 5313 5309 5310 5305 5303 5300 5296 5294 5295 5294 5292 5288 5284 5278 5269 5261 5253 5244 5235 5226 5218 5213 5206 5200 5193 5186 5180 5174 5168 5162 5159 5156 5156 5154 5153 5156 5162 5167 5178
5312 5308 5324 5316 5309 5308 5308 5301 5297 5292 5291 5288 5285 5284 5283 5280 5276 5267 5257 5248 5239 5229 5222 5214 5204 5196 5189 5184 5176 5170 5162 5156 5151 5147 5142 5137 5134 5134 5133 5132 5133 5139 5143 5152
5303 5308 5315 5312 5305 5301 5296 5291 5290 5288 5285 5281 5276 5274 5272 5268 5259 5249 5238 5228 5218 5209 5202 5195 5186 5178 5169 5162 5156 5148 5142 5138 5134 5131 5128 5124 5119 5118 5118 5117 5118 5120 5123 5129
5293 5299 5298 5300 5301 5296 5290 5286 5283 5280 5277 5272 5267 5264 5259 5250 5238 5228 5220 5208 5199 5190 5183 5178 5171 5163 5153 5145 5138 5132 5128 5124 5121 5118 5116 5114 5112 5108 5108 5108 5105 5109 5114 5118
5288 5294 5288 5290 5294 5290 5283 5279 5275 5270 5266 5261 5255 5248 5240 5229 5218 5208 5198 5188 5179 5173 5167 5161 5155 5148 5140 5132 5125 5119 5118 5115 5111 5109 5108 5107 5107 5107 5103 5103 5105 5105 5108 5111
5292 5292 5287 5287 5286 5283 5276 5272 5267 5260 5253 5245 5236 5226 5217 5208 5198 5186 5176 5169 5163 5158 5151 5146 5141 5135 5128 5123 5117 5111 5107 5105 5103 5101 5100 5100 5101 5102 5105 5105 5102 5102 5104 5106
5288 5284 5279 5280 5278 5275 5266 5256 5246 5236 5227 5220 5210 5198 5190 5182 5174 5165 5159 5153 5148 5142 5137 5133 5129 5124 5120 5116 5111 5107 5102 5100 5097 5095 5095 5095 5096 5097 5099 5102 5105 5106 5106 5107
5284 5279 5273 5269 5261 5248 5239 5229 5220 5214 5206 5196 5186 5177 5169 5162 5155 5149 5142 5138 5133 5129 5126 5123 5120 5117 5114 5111 5107 5103 5100 5098 5096 5094 5093 5093 5094 5095 5097 5099 5102 5106 5110 5112
5272 5257 5248 5244 5239 5227 5217 5209 5203 5198 5189 5179 5168 5159 5152 5144 5136 5130 5126 5122 5119 5118 5116 5114 5113 5111 5109 5106 5104 5102 5099 5097 5095 5094 5093 5093 5093 5093 5095 5097 5099 5102 5105 5107
5246 5239 5228 5221 5218 5209 5199 5190 5183 5175 5166 5156 5148 5140 5131 5124 5118 5114 5112 5110 5109 5108 5107 5106 5106 5105 5103 5102 5100 5099 5098 5097 5096 5094 5093 5092 5091 5091 5092 5092 5093 5094 5095 5097
5219 5214 5209 5203 5197 5188 5176 5166 5158 5150 5142 5135 5128 5120 5114 5108 5105 5103 5101 5099 5098 5097 5098 5099 5098 5099 5098 5097 5096 5096 5095 5093 5092 5091 5090 5089 5088 5088 5088 5087 5087 5087 5089 5089
5184 5180 5175 5170 5163 5157 5149 5141 5134 5127 5120 5114 5108 5103 5099 5095 5092 5090 5087 5086 5085 5087 5090 5090 5092 5092 5092 5092 5094 5092 5090 5089 5089 5087 5086 5085 5084 5082 5082 5081 5081 5081 5081 5083
5157 5151 5145 5140 5134 5128 5122 5117 5110 5104 5099 5094 5089 5084 5080 5078 5076 5075 5074 5074 5077 5080 5082 5082 5083 5086 5087 5088 5088 5087 5086 5085 5084 5083 5081 5079 5076 5075 5075 5075 5074 5075 5075 5075
5135 5129 5124 5118 5113 5106 5101 5095 5090 5085 5080 5076 5071 5068 5065 5063 5060 5059 5060 5063 5068 5071 5071 5074 5077 5080 5083 5084 5084 5083 5081 5080 5079 5077 5074 5072 5070 5068 5067 5067 5067 5067 5068 5068
5116 5109 5104 5098 5092 5086 5081 5077 5072 5067 5062 5057 5054 5050 5047 5045 5045 5046 5050 5053 5057 5060 5062 5066 5070 5074 5078 5079 5079 5078 5077 5076 5073 5071 5068 5065 5063 5061 5060 5059 5058 5058 5058 5058
5096 5091 5086 5079 5074 5069 5064 5059 5055 5050 5046 5041 5038 5035 5033 5034 5035 5037 5039 5043 5046 5050 5054 5059 5064 5070 5073 5073 5073 5073 5072 5070 5068 5065 5061 5059 5056 5054 5052 5050 5049 5048 5048 5048
5079 5073 5067 5062 5056 5051 5048 5047 5042 5037 5032 5028 5024 5022 5020 5020 5022 5026 5030 5033 5036 5041 5047 5053 5060 5065 5066 5066 5067 5067 5066 5064 5061 5058 5055 5052 5049 5046 5044 5042 5041 5040 5040 5039
5063 5057 5052 5047 5044 5041 5037 5033 5027 5023 5020 5016 5014 5012 5010 5009 5011 5014 5018 5023 5029 5036 5041 5047 5053 5057 5058 5059 5060 5060 5059 5058 5055 5052 5049 5046 5043 5040 5037 5035 5034 5033 5033 5033
5050 5046 5042 5037 5031 5026 5022 5018 5013 5009 5006 5002 5000 4999 4998 4998 5001 5005 5011 5018 5024 5031 5037 5042 5046 5049 5051 5053 5053 5053 5053 5052 5050 5047 5043 5040 5037 5035 5032 5031 5030 5029 5028 5028
5037 5033 5028 5024 5020 5014 5009 5004 5001 4997 4995 4992 4990 4990 4990 4993 4996 5001 5008 5015 5021 5027 5033 5037 5041 5044 5045 5047 5047 5047 5047 5045 5044 5041 5038 5035 5032 5029 5028 5026 5026 5026 5026 5027